Starlink 5092

operational
NORAD ID: 55408 Int'l Des: 2023-014 Owner: SPXS Country: US Constellation: starlink
LEOCIRCULAR

Über Starlink 5092

Beschreibung wird geladen...

Live-Position

3D-Globus wird geladen...

Nächste Überflüge

Höhenverlauf

Altitude vs Time

uPlot chart will show altitude changes over time

Zweizeiliger Elementsatz

1 55408U 23014T 25302.52170435 -.00000238 00000-0 -12139-4 0 9996
2 55408 70.0014 35.3458 0002865 268.5533 91.5298 14.98330622152401
Epoch: 29. Okt. 2025 • Age: 15 hours

Aktueller Status

Höhe 581.5 km
Geschwindigkeit 7.57 km/s
Subsatellitenpunkt 51.64°N, 25.56°W
Startdatum 31. Jan. 2023
Alter 2.7 years
Typ internet

Technische Details

Klassifizierung Payload
Masse 305.00 kg
Trockenmasse 290.00 kg
Gesamtmasse 305.00 kg
Länge 0.20 m
Durchmesser 2.80 m
Spannweite 9.00 m
Form Box + pan
Hersteller SPXS
Bus-Typ Starlink
Phasenstatus In Orbit
Besitzer/Staat SPXS/US

Große Konstellationen

Loading constellations...